STARLINK-4706, 53779

Orbit data source: Space-Track

STARLINK-4706, 53779 is a payload satellite owned by SpaceX/Seattle (US) in LEO that was launched on Sun, 11 Sep 2022 UTC via an FALCON 9 launch vehicle from the Air Force Eastern Test Range (AFETR). Payload-class satellites include a variety of spacecraft equipped with specific instruments for various scientific and technological missions. These include communications satellites like Starlink; space stations such as the ISS; scientific satellites like the Hubble; Earth observation satellites from companies like Planet Labs, Umbra, and HawkEye 360; GPS; miniature CubeSats for education and research; and military/defense satellites.

Loading next visibility...
Identifier
53779, 2022-111G
Orbit
LEO
Country
Flag of USUS
Related business
Manufacturer
SpaceX/Seattle
Mission
Operational Commercial Communications
Bus & Motor
STARLINK, Unknown motor
Mass
305 kg wet, ~290 kg dry
Launch date (UTC)
2022-09-11 (4 years ago)
Launch vehicle
FALCON 9
Launch site
Air Force Eastern Test Range (AFETR)
Object type
Payload
Rocket body
Debris
Shape & HBR
Box + 1 Pan, 10.1 m
Radar Cross Section
13.562 m², Large (>1 m²)

Expand to show TLE details & history
Last TLE update: 12 hours ago

TLE from 12 hours ago
0 STARLINK-4706
1 53779U 22111G   26127.96874942  .00001818  00000-0  13236-3 0  9991
2 53779  53.2180   8.1205 0001126  59.1082 301.0020 15.08820138202649
Epoch: 2026-05-07T23:14Z
TLE epoch observation values (Epoch: 2026-05-07T23:14:59.949Z)
Latitude
-0.00011°
Longitude
153.56336°
Altitude
540.3 km
Speed
7.594 km/s
True Right ascension
00h 32m 28s
True Declination
0° 00' 00"
Sunlit
Object was in daylight at epoch
Visualization orbit readout
Latitude
Unknown
Longitude
Unknown
Altitude
Unknown
Speed
Unknown
Apparent Right ascension
Unknown
Apparent Declination
Unknown
Sunlit
N/A
Visualization observer readout
Local Sidereal Time
19:35:46
Azimuth
Unknown
Elevation
Unknown
Doppler factor
Unknown
Orbital elements
Apogee altitude
540.828 km
Perigee altitude
539.27 km
Semi-major axis
6,918.186 km
Eccentricity
0.00011
Inclination
53.218°
RAAN
8.1205°
Arg. of periapsis
59.1082°
True anomaly
300.99094°
Mean anomaly
301.002°
Eccentric anomaly
300.99647°
Mean motion
3.77185 °/min
Orbital period
95.44 mins
BSTAR
0.00013236
Loading maneuver chart data...
Computing Atmospheric mass density...
Loading historical data...
Loading historical data...
Loading historical data...
Loading historical data...
Loading historical data...
Loading historical data...
Loading historical data...

Documentation

Showing up to 5 results
|